Time,TemperatureF,DewpointF,PressureIn,WindDirection,WindDirectionDegrees,WindSpeedMPH,WindSpeedGustMPH,Humidity,HourlyPrecipIn,Conditions,Clouds,dailyrainin,SoftwareType,DateUTC
2013-01-22 00:00:00,42.4,24.1,29.71,North,0,0.0,0.0,48,0.00,,BKN,0.00,VWS V14.01,2013-01-22 06:00:00,
2013-01-22 00:05:00,42.3,24.0,29.71,North,0,0.0,0.0,48,0.00,,BKN,0.00,VWS V14.01,2013-01-22 06:05:00,
2013-01-22 00:10:00,42.1,23.8,29.71,North,0,0.0,0.0,48,0.00,,BKN,0.00,VWS V14.01,2013-01-22 06:10:00,
2013-01-22 00:15:00,42.1,23.8,29.71,North,0,0.0,0.0,48,0.00,,BKN,0.00,VWS V14.01,2013-01-22 06:15:00,
2013-01-22 00:21:00,41.9,24.1,29.71,North,0,0.0,0.0,49,0.00,,BKN,0.00,VWS V14.01,2013-01-22 06:21:00,
2013-01-22 00:26:00,41.7,24.0,29.71,North,0,0.0,0.0,49,0.00,,BKN,0.00,VWS V14.01,2013-01-22 06:26:00,
2013-01-22 00:31:00,41.5,23.8,29.71,North,0,0.0,0.0,49,0.00,,BKN,0.00,VWS V14.01,2013-01-22 06:31:00,
2013-01-22 00:36:00,41.5,23.8,29.71,North,0,0.0,0.0,49,0.00,,BKN,0.00,VWS V14.01,2013-01-22 06:36:00,
2013-01-22 00:41:00,41.5,23.8,29.71,North,0,0.0,0.0,49,0.00,,BKN,0.00,VWS V14.01,2013-01-22 06:41:00,
2013-01-22 00:46:00,41.4,24.1,29.71,North,0,0.0,0.0,50,0.00,,BKN,0.00,VWS V14.01,2013-01-22 06:46:00,
2013-01-22 00:51:00,41.2,24.0,29.71,North,0,0.0,0.0,50,0.00,,BKN,0.00,VWS V14.01,2013-01-22 06:51:00,
2013-01-22 00:56:00,41.2,24.0,29.71,North,0,0.0,0.0,50,0.00,,BKN,0.00,VWS V14.01,2013-01-22 06:56:00,
2013-01-22 01:01:00,41.2,24.0,29.71,North,0,0.0,0.0,50,0.00,,BKN,0.00,VWS V14.01,2013-01-22 07:01:00,
2013-01-22 01:07:00,41.0,24.3,29.71,North,0,0.0,0.0,51,0.00,,BKN,0.00,VWS V14.01,2013-01-22 07:07:00,
2013-01-22 01:12:00,41.0,24.3,29.71,North,0,0.0,0.0,51,0.00,,BKN,0.00,VWS V14.01,2013-01-22 07:12:00,
2013-01-22 01:17:00,41.0,24.3,29.71,North,0,0.0,0.0,51,0.00,,BKN,0.00,VWS V14.01,2013-01-22 07:17:00,
2013-01-22 01:22:00,40.8,24.1,29.71,North,0,0.0,0.0,51,0.00,,BKN,0.00,VWS V14.01,2013-01-22 07:22:00,
2013-01-22 01:27:00,40.8,24.1,29.71,North,0,0.0,0.0,51,0.00,,BKN,0.00,VWS V14.01,2013-01-22 07:27:00,
2013-01-22 01:33:00,40.6,23.9,29.71,North,0,0.0,0.0,51,0.00,,BKN,0.00,VWS V14.01,2013-01-22 07:33:00,
2013-01-22 01:38:00,40.6,24.4,29.71,North,0,0.0,0.0,52,0.00,,BKN,0.00,VWS V14.01,2013-01-22 07:38:00,
2013-01-22 01:43:00,40.6,24.4,29.71,North,0,0.0,0.0,52,0.00,,BKN,0.00,VWS V14.01,2013-01-22 07:43:00,
2013-01-22 01:48:00,40.6,24.4,29.71,North,0,0.0,0.0,52,0.00,,BKN,0.00,VWS V14.01,2013-01-22 07:48:00,
2013-01-22 01:53:00,40.6,24.4,29.71,North,0,0.0,0.0,52,0.00,,BKN,0.00,VWS V14.01,2013-01-22 07:53:00,
2013-01-22 01:58:00,40.6,24.4,29.71,North,0,0.0,0.0,52,0.00,,BKN,0.00,VWS V14.01,2013-01-22 07:58:00,
2013-01-22 02:03:00,40.6,24.4,29.71,North,0,0.0,0.0,52,0.00,,BKN,0.00,VWS V14.01,2013-01-22 08:03:00,
2013-01-22 02:08:00,40.6,24.4,29.71,North,0,0.0,0.0,52,0.00,,BKN,0.00,VWS V14.01,2013-01-22 08:08:00,
2013-01-22 02:14:00,40.8,24.6,29.71,North,0,0.0,0.0,52,0.00,,BKN,0.00,VWS V14.01,2013-01-22 08:14:00,
2013-01-22 02:19:00,40.8,24.6,29.71,North,0,0.0,0.0,52,0.00,,BKN,0.00,VWS V14.01,2013-01-22 08:19:00,
2013-01-22 02:24:00,40.8,24.6,29.71,North,0,0.0,0.0,52,0.00,,BKN,0.00,VWS V14.01,2013-01-22 08:24:00,
2013-01-22 02:29:00,40.6,24.4,29.71,North,0,0.0,0.0,52,0.00,,BKN,0.00,VWS V14.01,2013-01-22 08:29:00,
2013-01-22 02:34:00,40.5,24.2,29.71,North,0,0.0,0.0,52,0.00,,BKN,0.00,VWS V14.01,2013-01-22 08:34:00,
2013-01-22 02:39:00,40.3,24.1,29.71,North,0,0.0,0.0,52,0.00,,BKN,0.00,VWS V14.01,2013-01-22 08:39:00,
2013-01-22 02:45:00,40.1,23.9,29.71,North,0,0.0,0.0,52,0.00,,BKN,0.00,VWS V14.01,2013-01-22 08:45:00,
2013-01-22 02:50:00,39.9,24.2,29.71,North,0,0.0,0.0,53,0.00,,BKN,0.00,VWS V14.01,2013-01-22 08:50:00,
2013-01-22 02:55:00,39.9,24.2,29.71,North,0,0.0,0.0,53,0.00,,BKN,0.00,VWS V14.01,2013-01-22 08:55:00,
2013-01-22 03:00:00,39.9,24.2,29.71,North,0,0.0,0.0,53,0.00,,BKN,0.00,VWS V14.01,2013-01-22 09:00:00,
2013-01-22 03:05:00,40.1,24.4,29.71,North,0,0.0,0.0,53,0.00,,BKN,0.00,VWS V14.01,2013-01-22 09:05:00,
2013-01-22 03:10:00,40.1,24.4,29.71,North,0,0.0,0.0,53,0.00,,BKN,0.00,VWS V14.01,2013-01-22 09:10:00,
2013-01-22 03:15:00,40.1,24.4,29.71,North,0,0.0,0.0,53,0.00,,BKN,0.00,VWS V14.01,2013-01-22 09:15:00,
2013-01-22 03:21:00,39.9,24.2,29.71,North,0,0.0,0.0,53,0.00,,BKN,0.00,VWS V14.01,2013-01-22 09:21:00,
2013-01-22 03:26:00,39.7,24.0,29.71,North,0,0.0,0.0,53,0.00,,BKN,0.00,VWS V14.01,2013-01-22 09:26:00,
2013-01-22 03:31:00,39.7,24.0,29.71,North,0,0.0,0.0,53,0.00,,BKN,0.00,VWS V14.01,2013-01-22 09:31:00,
2013-01-22 03:36:00,39.6,24.3,29.71,North,0,0.0,0.0,54,0.00,,BKN,0.00,VWS V14.01,2013-01-22 09:36:00,
2013-01-22 03:41:00,39.4,24.1,29.71,North,0,0.0,0.0,54,0.00,,BKN,0.00,VWS V14.01,2013-01-22 09:41:00,
2013-01-22 03:46:00,39.2,24.0,29.71,North,0,0.0,0.0,54,0.00,,BKN,0.00,VWS V14.01,2013-01-22 09:46:00,
2013-01-22 03:51:00,39.0,24.2,29.71,North,0,0.0,0.0,55,0.00,,BKN,0.00,VWS V14.01,2013-01-22 09:51:00,
2013-01-22 03:57:00,39.0,24.2,29.71,North,0,0.0,0.0,55,0.00,,BKN,0.00,VWS V14.01,2013-01-22 09:57:00,
2013-01-22 04:02:00,39.0,24.2,29.71,North,0,0.0,0.0,55,0.00,,BKN,0.00,VWS V14.01,2013-01-22 10:02:00,
2013-01-22 04:07:00,39.2,24.4,29.71,North,0,0.0,0.0,55,0.00,,BKN,0.00,VWS V14.01,2013-01-22 10:07:00,
2013-01-22 04:12:00,39.4,24.6,29.71,North,0,0.0,0.0,55,0.00,,BKN,0.00,VWS V14.01,2013-01-22 10:12:00,
2013-01-22 04:17:00,39.6,24.7,29.71,North,0,0.0,0.0,55,0.00,,BKN,0.00,VWS V14.01,2013-01-22 10:17:00,
2013-01-22 04:22:00,39.6,24.7,29.71,North,0,0.0,0.0,55,0.00,,BKN,0.00,VWS V14.01,2013-01-22 10:22:00,
2013-01-22 04:27:00,39.7,24.9,29.71,North,0,0.0,0.0,55,0.00,,BKN,0.00,VWS V14.01,2013-01-22 10:27:00,
2013-01-22 04:33:00,39.7,24.9,29.71,North,0,0.0,0.0,55,0.00,,BKN,0.00,VWS V14.01,2013-01-22 10:33:00,
2013-01-22 04:38:00,39.9,25.1,29.71,North,0,0.0,0.0,55,0.00,,BKN,0.00,VWS V14.01,2013-01-22 10:38:00,
2013-01-22 04:43:00,39.9,25.1,29.71,North,0,0.0,0.0,55,0.00,,BKN,0.00,VWS V14.01,2013-01-22 10:43:00,
2013-01-22 04:48:00,39.9,25.1,29.71,North,0,0.0,0.0,55,0.00,,BKN,0.00,VWS V14.01,2013-01-22 10:48:00,
2013-01-22 04:53:00,40.1,25.2,29.71,North,0,0.0,0.0,55,0.00,,BKN,0.00,VWS V14.01,2013-01-22 10:53:00,
2013-01-22 04:58:00,40.3,25.4,29.71,North,0,0.0,0.0,55,0.00,,BKN,0.00,VWS V14.01,2013-01-22 10:58:00,
2013-01-22 05:03:00,40.3,25.4,29.71,North,0,0.0,0.0,55,0.00,,BKN,0.00,VWS V14.01,2013-01-22 11:03:00,
2013-01-22 05:08:00,40.5,25.1,29.71,North,0,0.0,0.0,54,0.00,,BKN,0.00,VWS V14.01,2013-01-22 11:08:00,
2013-01-22 05:14:00,40.5,25.1,29.71,North,0,0.0,0.0,54,0.00,,BKN,0.00,VWS V14.01,2013-01-22 11:14:00,
2013-01-22 05:19:00,40.5,25.1,29.71,North,0,0.0,0.0,54,0.00,,BKN,0.00,VWS V14.01,2013-01-22 11:19:00,
2013-01-22 05:24:00,40.3,25.0,29.71,North,0,0.0,0.0,54,0.00,,BKN,0.00,VWS V14.01,2013-01-22 11:24:00,
2013-01-22 05:29:00,40.3,24.5,29.74,North,0,0.0,0.0,53,0.00,,BKN,0.00,VWS V14.01,2013-01-22 11:29:00,
2013-01-22 05:34:00,40.3,24.5,29.74,North,0,0.0,0.0,53,0.00,,BKN,0.00,VWS V14.01,2013-01-22 11:34:00,
2013-01-22 05:39:00,40.3,25.0,29.74,North,0,0.0,0.0,54,0.00,,BKN,0.00,VWS V14.01,2013-01-22 11:39:00,
2013-01-22 05:44:00,40.5,24.7,29.74,North,0,0.0,0.0,53,0.00,,BKN,0.00,VWS V14.01,2013-01-22 11:44:00,
2013-01-22 05:49:00,40.5,24.7,29.74,North,0,0.0,0.0,53,0.00,,BKN,0.00,VWS V14.01,2013-01-22 11:49:00,
2013-01-22 05:55:00,40.6,24.9,29.74,North,0,0.0,0.0,53,0.00,,BKN,0.00,VWS V14.01,2013-01-22 11:55:00,
2013-01-22 06:00:00,40.6,24.9,29.74,North,0,0.0,0.0,53,0.00,,BKN,0.00,VWS V14.01,2013-01-22 12:00:00,
2013-01-22 06:05:00,40.6,24.9,29.74,North,0,0.0,0.0,53,0.00,,BKN,0.00,VWS V14.01,2013-01-22 12:05:00,
2013-01-22 06:10:00,41.0,24.7,29.74,North,0,0.0,0.0,52,0.00,,BKN,0.00,VWS V14.01,2013-01-22 12:10:00,
2013-01-22 06:15:00,41.0,24.7,29.74,North,0,0.0,0.0,52,0.00,,BKN,0.00,VWS V14.01,2013-01-22 12:15:00,
2013-01-22 06:20:00,41.2,24.9,29.74,North,0,0.0,0.0,52,0.00,,BKN,0.00,VWS V14.01,2013-01-22 12:20:00,
2013-01-22 06:25:00,41.4,25.1,29.74,North,0,0.0,0.0,52,0.00,,BKN,0.00,VWS V14.01,2013-01-22 12:25:00,
2013-01-22 06:30:00,41.4,25.1,29.74,North,0,0.0,0.0,52,0.00,,BKN,0.00,VWS V14.01,2013-01-22 12:30:00,
2013-01-22 06:35:00,41.4,25.1,29.74,North,0,0.0,0.0,52,0.00,,BKN,0.00,VWS V14.01,2013-01-22 12:35:00,
2013-01-22 06:40:00,41.5,25.2,29.74,North,0,0.0,0.0,52,0.00,,BKN,0.00,VWS V14.01,2013-01-22 12:40:00,
2013-01-22 06:45:00,41.5,25.2,29.74,North,0,0.0,0.0,52,0.00,,BKN,0.00,VWS V14.01,2013-01-22 12:45:00,
2013-01-22 06:51:00,41.5,25.2,29.74,North,0,0.0,0.0,52,0.00,,BKN,0.00,VWS V14.01,2013-01-22 12:51:00,
2013-01-22 06:56:00,41.5,25.2,29.74,North,0,0.0,0.0,52,0.00,,BKN,0.00,VWS V14.01,2013-01-22 12:56:00,
2013-01-22 07:01:00,41.4,25.1,29.74,North,0,0.0,0.0,52,0.00,,BKN,0.00,VWS V14.01,2013-01-22 13:01:00,
2013-01-22 07:06:00,41.2,24.9,29.74,North,0,0.0,0.0,52,0.00,,BKN,0.00,VWS V14.01,2013-01-22 13:06:00,
2013-01-22 07:11:00,41.0,24.7,29.74,North,0,0.0,0.0,52,0.00,,BKN,0.00,VWS V14.01,2013-01-22 13:11:00,
2013-01-22 07:16:00,41.0,25.2,29.77,North,0,0.0,0.0,53,0.00,,BKN,0.00,VWS V14.01,2013-01-22 13:16:00,
2013-01-22 07:21:00,40.8,25.0,29.77,North,0,0.0,0.0,53,0.00,,BKN,0.00,VWS V14.01,2013-01-22 13:21:00,
2013-01-22 07:26:00,40.8,25.0,29.77,North,0,0.0,0.0,53,0.00,,BKN,0.00,VWS V14.01,2013-01-22 13:26:00,
2013-01-22 07:32:00,40.6,25.3,29.77,North,0,0.0,0.0,54,0.00,,BKN,0.00,VWS V14.01,2013-01-22 13:32:00,
2013-01-22 07:37:00,40.8,25.5,29.77,North,0,0.0,0.0,54,0.00,,BKN,0.00,VWS V14.01,2013-01-22 13:37:00,
2013-01-22 07:42:00,40.8,25.5,29.77,North,0,0.0,0.0,54,0.00,,BKN,0.00,VWS V14.01,2013-01-22 13:42:00,
2013-01-22 07:47:00,41.0,25.6,29.77,North,0,0.0,0.0,54,0.00,,BKN,0.00,VWS V14.01,2013-01-22 13:47:00,
2013-01-22 07:52:00,41.2,25.8,29.77,North,0,0.0,0.0,54,0.00,,BKN,0.00,VWS V14.01,2013-01-22 13:52:00,
2013-01-22 07:57:00,41.4,26.0,29.77,North,0,0.0,0.0,54,0.00,,BKN,0.00,VWS V14.01,2013-01-22 13:57:00,
2013-01-22 08:03:00,41.7,26.8,29.77,North,0,0.0,0.0,55,0.00,,BKN,0.00,VWS V14.01,2013-01-22 14:03:00,
2013-01-22 08:08:00,41.9,26.9,29.77,North,0,0.0,0.0,55,0.00,,BKN,0.00,VWS V14.01,2013-01-22 14:08:00,
2013-01-22 08:13:00,42.1,27.1,29.77,North,0,0.0,0.0,55,0.00,,BKN,0.00,VWS V14.01,2013-01-22 14:13:00,
2013-01-22 08:18:00,42.3,27.3,29.77,North,0,0.0,0.0,55,0.00,,BKN,0.00,VWS V14.01,2013-01-22 14:18:00,
2013-01-22 08:23:00,42.4,27.0,29.77,North,0,0.0,0.0,54,0.00,,BKN,0.00,VWS V14.01,2013-01-22 14:23:00,
2013-01-22 08:28:00,42.6,27.1,29.77,North,0,0.0,0.0,54,0.00,,BKN,0.00,VWS V14.01,2013-01-22 14:28:00,
2013-01-22 08:33:00,43.0,26.1,29.74,North,0,0.0,0.0,51,0.00,,BKN,0.00,VWS V14.01,2013-01-22 14:33:00,
2013-01-22 08:38:00,43.0,25.6,29.74,North,0,0.0,0.0,50,0.00,,BKN,0.00,VWS V14.01,2013-01-22 14:38:00,
2013-01-22 08:44:00,43.2,25.8,29.74,North,0,0.0,0.0,50,0.00,,BKN,0.00,VWS V14.01,2013-01-22 14:44:00,
2013-01-22 08:49:00,43.5,26.1,29.74,North,0,0.0,0.0,50,0.00,,BKN,0.00,VWS V14.01,2013-01-22 14:49:00,
2013-01-22 08:54:00,43.7,26.3,29.74,North,0,0.0,0.0,50,0.00,,BKN,0.00,VWS V14.01,2013-01-22 14:54:00,
2013-01-22 08:59:00,43.9,26.0,29.74,North,0,0.0,0.0,49,0.00,,BKN,0.00,VWS V14.01,2013-01-22 14:59:00,
2013-01-22 09:04:00,44.2,26.8,29.74,North,0,0.0,0.0,50,0.00,,BKN,0.00,VWS V14.01,2013-01-22 15:04:00,
2013-01-22 09:09:00,44.2,27.3,29.74,North,0,0.0,0.0,51,0.00,,BKN,0.00,VWS V14.01,2013-01-22 15:09:00,
2013-01-22 09:14:00,44.6,27.1,29.74,North,0,0.0,0.0,50,0.00,,BKN,0.00,VWS V14.01,2013-01-22 15:14:00,
2013-01-22 09:19:00,45.1,27.6,29.74,North,0,0.0,0.0,50,0.00,,BKN,0.00,VWS V14.01,2013-01-22 15:19:00,
2013-01-22 09:25:00,45.5,28.4,29.74,North,0,0.0,0.0,51,0.00,,BKN,0.00,VWS V14.01,2013-01-22 15:25:00,
2013-01-22 09:30:00,46.0,29.4,29.74,North,0,0.0,0.0,52,0.00,,BKN,0.00,VWS V14.01,2013-01-22 15:30:00,
2013-01-22 09:35:00,46.4,29.3,29.74,North,0,0.0,0.0,51,0.00,,BKN,0.00,VWS V14.01,2013-01-22 15:35:00,
2013-01-22 09:40:00,46.8,29.6,29.74,North,0,0.0,0.0,51,0.00,,BKN,0.00,VWS V14.01,2013-01-22 15:40:00,
2013-01-22 09:45:00,47.1,29.9,29.74,North,0,0.0,0.0,51,0.00,,BKN,0.00,VWS V14.01,2013-01-22 15:45:00,
2013-01-22 09:50:00,47.5,30.3,29.74,North,0,0.0,0.0,51,0.00,,BKN,0.00,VWS V14.01,2013-01-22 15:50:00,
2013-01-22 09:55:00,47.8,31.1,29.74,North,0,0.0,0.0,52,0.00,,BKN,0.00,VWS V14.01,2013-01-22 15:55:00,
2013-01-22 10:00:00,48.2,31.4,29.74,North,0,0.0,0.0,52,0.00,,BKN,0.00,VWS V14.01,2013-01-22 16:00:00,
2013-01-22 10:05:00,48.7,31.4,29.74,North,0,0.0,0.0,51,0.00,,BKN,0.00,VWS V14.01,2013-01-22 16:05:00,
2013-01-22 10:10:00,49.1,31.8,29.74,North,0,0.0,0.0,51,0.00,,BKN,0.00,VWS V14.01,2013-01-22 16:10:00,
2013-01-22 10:15:00,49.8,32.4,29.74,North,0,0.0,0.0,51,0.00,,BKN,0.00,VWS V14.01,2013-01-22 16:15:00,
2013-01-22 10:21:00,50.2,32.3,29.74,North,0,0.0,0.0,50,0.00,,BKN,0.00,VWS V14.01,2013-01-22 16:21:00,
2013-01-22 10:26:00,50.7,32.8,29.74,North,0,0.0,0.0,50,0.00,,BKN,0.00,VWS V14.01,2013-01-22 16:26:00,
2013-01-22 10:31:00,51.3,33.3,29.74,North,0,0.0,0.0,50,0.00,,BKN,0.00,VWS V14.01,2013-01-22 16:31:00,
2013-01-22 10:36:00,52.0,33.9,29.74,North,0,0.0,0.0,50,0.00,,BKN,0.00,VWS V14.01,2013-01-22 16:36:00,
2013-01-22 10:42:00,52.7,34.6,29.74,North,0,0.0,0.0,50,0.00,,BKN,0.00,VWS V14.01,2013-01-22 16:42:00,
2013-01-22 10:47:00,52.9,34.8,29.74,North,0,0.0,0.0,50,0.00,,BKN,0.00,VWS V14.01,2013-01-22 16:47:00,
2013-01-22 10:52:00,53.2,34.6,29.74,North,0,0.0,0.0,49,0.00,,BKN,0.00,VWS V14.01,2013-01-22 16:52:00,
2013-01-22 10:57:00,53.4,34.8,29.74,North,0,0.0,0.0,49,0.00,,BKN,0.00,VWS V14.01,2013-01-22 16:57:00,
2013-01-22 11:02:00,53.6,34.4,29.74,North,0,0.0,0.0,48,0.00,,BKN,0.00,VWS V14.01,2013-01-22 17:02:00,
2013-01-22 11:07:00,54.3,35.1,29.74,North,0,0.0,0.0,48,0.00,,BKN,0.00,VWS V14.01,2013-01-22 17:07:00,
2013-01-22 11:12:00,54.9,35.6,29.74,North,0,0.0,0.0,48,0.00,,BKN,0.00,VWS V14.01,2013-01-22 17:12:00,
2013-01-22 11:17:00,55.2,35.9,29.74,North,0,0.0,0.0,48,0.00,,BKN,0.00,VWS V14.01,2013-01-22 17:17:00,
2013-01-22 11:23:00,55.6,36.2,29.74,North,0,0.0,0.0,48,0.00,,BKN,0.00,VWS V14.01,2013-01-22 17:23:00,
2013-01-22 11:28:00,55.6,35.7,29.74,North,0,0.0,0.0,47,0.00,,BKN,0.00,VWS V14.01,2013-01-22 17:28:00,
2013-01-22 11:33:00,55.9,36.5,29.74,North,0,0.0,0.0,48,0.00,,BKN,0.00,VWS V14.01,2013-01-22 17:33:00,
2013-01-22 11:38:00,56.3,36.3,29.74,North,0,0.0,0.0,47,0.00,,BKN,0.00,VWS V14.01,2013-01-22 17:38:00,
2013-01-22 11:43:00,56.7,36.7,29.74,North,0,0.0,0.0,47,0.00,,BKN,0.00,VWS V14.01,2013-01-22 17:43:00,
2013-01-22 11:48:00,56.8,36.8,29.71,North,0,0.0,0.0,47,0.00,,BKN,0.00,VWS V14.01,2013-01-22 17:48:00,
2013-01-22 11:53:00,57.6,38.0,29.71,North,0,0.0,0.0,48,0.00,,BKN,0.00,VWS V14.01,2013-01-22 17:53:00,
2013-01-22 11:58:00,57.9,37.8,29.71,North,0,0.0,0.0,47,0.00,,BKN,0.00,VWS V14.01,2013-01-22 17:58:00,
2013-01-22 12:03:00,58.1,38.0,29.71,North,0,0.0,0.0,47,0.00,,BKN,0.00,VWS V14.01,2013-01-22 18:03:00,
2013-01-22 12:08:00,58.1,38.0,29.71,North,0,0.0,0.0,47,0.00,,BKN,0.00,VWS V14.01,2013-01-22 18:08:00,
2013-01-22 12:13:00,58.3,38.2,29.71,North,0,0.0,0.0,47,0.00,,BKN,0.00,VWS V14.01,2013-01-22 18:13:00,
2013-01-22 12:18:00,58.6,39.0,29.71,North,0,0.0,0.0,48,0.00,,BKN,0.00,VWS V14.01,2013-01-22 18:18:00,
2013-01-22 12:23:00,59.2,39.5,29.71,North,0,0.0,0.0,48,0.00,,BKN,0.00,VWS V14.01,2013-01-22 18:23:00,
2013-01-22 12:29:00,59.7,39.5,29.71,North,0,0.0,0.0,47,0.00,,BKN,0.00,VWS V14.01,2013-01-22 18:29:00,
2013-01-22 12:34:00,60.1,39.2,29.68,North,0,0.0,0.0,46,0.00,,BKN,0.00,VWS V14.01,2013-01-22 18:34:00,
2013-01-22 12:39:00,60.4,39.6,29.68,North,0,0.0,0.0,46,0.00,,BKN,0.00,VWS V14.01,2013-01-22 18:39:00,
2013-01-22 12:44:00,61.0,39.5,29.68,North,0,0.0,0.0,45,0.00,,BKN,0.00,VWS V14.01,2013-01-22 18:44:00,
2013-01-22 12:49:00,61.3,39.8,29.68,North,0,0.0,0.0,45,0.00,,BKN,0.00,VWS V14.01,2013-01-22 18:49:00,
2013-01-22 12:54:00,61.5,39.4,29.68,North,0,0.0,0.0,44,0.00,,BKN,0.00,VWS V14.01,2013-01-22 18:54:00,
2013-01-22 13:00:00,61.9,39.8,29.68,North,0,0.0,0.0,44,0.00,,BKN,0.00,VWS V14.01,2013-01-22 19:00:00,
2013-01-22 13:05:00,62.6,40.4,29.68,North,0,0.0,0.0,44,0.00,,BKN,0.00,VWS V14.01,2013-01-22 19:05:00,
2013-01-22 13:10:00,62.6,39.8,29.68,North,0,0.0,0.0,43,0.00,,BKN,0.00,VWS V14.01,2013-01-22 19:10:00,
2013-01-22 13:15:00,62.4,40.2,29.68,North,0,0.0,0.0,44,0.00,,BKN,0.00,VWS V14.01,2013-01-22 19:15:00,
2013-01-22 13:20:00,62.4,40.8,29.68,North,0,0.0,0.0,45,0.00,,BKN,0.00,VWS V14.01,2013-01-22 19:20:00,
2013-01-22 13:25:00,62.4,40.8,29.68,North,0,0.0,0.0,45,0.00,,BKN,0.00,VWS V14.01,2013-01-22 19:25:00,
2013-01-22 13:30:00,62.6,40.4,29.68,North,0,0.0,0.0,44,0.00,,BKN,0.00,VWS V14.01,2013-01-22 19:30:00,
2013-01-22 13:35:00,62.8,40.6,29.68,North,0,0.0,0.0,44,0.00,,BKN,0.00,VWS V14.01,2013-01-22 19:35:00,
2013-01-22 13:40:00,63.0,40.7,29.68,North,0,0.0,0.0,44,0.00,,BKN,0.00,VWS V14.01,2013-01-22 19:40:00,
2013-01-22 13:45:00,63.0,40.7,29.65,North,0,0.0,0.0,44,0.00,,BKN,0.00,VWS V14.01,2013-01-22 19:45:00,
2013-01-22 13:50:00,62.8,40.6,29.65,North,0,0.0,0.0,44,0.00,,BKN,0.00,VWS V14.01,2013-01-22 19:50:00,
2013-01-22 13:55:00,62.8,40.6,29.65,North,0,0.0,0.0,44,0.00,,BKN,0.00,VWS V14.01,2013-01-22 19:55:00,
2013-01-22 14:00:00,63.3,41.1,29.65,North,0,0.0,0.0,44,0.00,,BKN,0.00,VWS V14.01,2013-01-22 20:00:00,
2013-01-22 14:06:00,63.5,40.6,29.65,North,0,0.0,0.0,43,0.00,,BKN,0.00,VWS V14.01,2013-01-22 20:06:00,
2013-01-22 14:11:00,63.5,40.0,29.65,North,0,0.0,0.0,42,0.00,,BKN,0.00,VWS V14.01,2013-01-22 20:11:00,
2013-01-22 14:16:00,63.5,40.0,29.65,North,0,0.0,0.0,42,0.00,,BKN,0.00,VWS V14.01,2013-01-22 20:16:00,
2013-01-22 14:21:00,63.7,40.2,29.65,North,0,0.0,0.0,42,0.00,,BKN,0.00,VWS V14.01,2013-01-22 20:21:00,
2013-01-22 14:26:00,63.9,39.7,29.65,North,0,0.0,0.0,41,0.00,,BKN,0.00,VWS V14.01,2013-01-22 20:26:00,
2013-01-22 14:31:00,64.0,39.9,29.65,North,0,0.0,0.0,41,0.00,,BKN,0.00,VWS V14.01,2013-01-22 20:31:00,
2013-01-22 14:36:00,64.2,40.0,29.65,North,0,0.0,0.0,41,0.00,,BKN,0.00,VWS V14.01,2013-01-22 20:36:00,
2013-01-22 14:41:00,64.4,39.6,29.65,North,0,0.0,0.0,40,0.00,,BKN,0.00,VWS V14.01,2013-01-22 20:41:00,
2013-01-22 14:46:00,64.6,39.1,29.65,North,0,0.0,0.0,39,0.00,,BKN,0.00,VWS V14.01,2013-01-22 20:46:00,
2013-01-22 14:52:00,64.8,39.9,29.65,North,0,0.0,0.0,40,0.00,,BKN,0.00,VWS V14.01,2013-01-22 20:52:00,
2013-01-22 14:57:00,64.8,39.2,29.65,North,0,0.0,0.0,39,0.00,,BKN,0.00,VWS V14.01,2013-01-22 20:57:00,
2013-01-22 15:02:00,64.8,39.9,29.62,North,0,0.0,0.0,40,0.00,,BKN,0.00,VWS V14.01,2013-01-22 21:02:00,
2013-01-22 15:07:00,64.9,40.1,29.62,North,0,0.0,0.0,40,0.00,,BKN,0.00,VWS V14.01,2013-01-22 21:07:00,
2013-01-22 15:12:00,64.9,40.1,29.62,North,0,0.0,0.0,40,0.00,,BKN,0.00,VWS V14.01,2013-01-22 21:12:00,
2013-01-22 15:17:00,65.1,40.2,29.62,North,0,0.0,0.0,40,0.00,,BKN,0.00,VWS V14.01,2013-01-22 21:17:00,
2013-01-22 15:22:00,65.3,40.4,29.62,North,0,0.0,0.0,40,0.00,,BKN,0.00,VWS V14.01,2013-01-22 21:22:00,
2013-01-22 15:28:00,65.5,40.5,29.62,North,0,0.0,0.0,40,0.00,,BKN,0.00,VWS V14.01,2013-01-22 21:28:00,
2013-01-22 15:32:00,65.5,41.2,29.62,North,0,0.0,0.0,41,0.00,,BKN,0.00,VWS V14.01,2013-01-22 21:32:00,
2013-01-22 15:37:00,65.3,41.0,29.62,North,0,0.0,0.0,41,0.00,,BKN,0.00,VWS V14.01,2013-01-22 21:37:00,
2013-01-22 15:42:00,65.5,41.2,29.62,North,0,0.0,0.0,41,0.00,,BKN,0.00,VWS V14.01,2013-01-22 21:42:00,
2013-01-22 15:47:00,65.3,41.0,29.62,North,0,0.0,0.0,41,0.00,,BKN,0.00,VWS V14.01,2013-01-22 21:47:00,
2013-01-22 15:52:00,65.1,40.9,29.62,North,0,0.0,0.0,41,0.00,,BKN,0.00,VWS V14.01,2013-01-22 21:52:00,
2013-01-22 15:57:00,65.3,41.0,29.62,North,0,0.0,0.0,41,0.00,,BKN,0.00,VWS V14.01,2013-01-22 21:57:00,
2013-01-22 16:02:00,65.3,41.0,29.62,North,0,0.0,0.0,41,0.00,,BKN,0.00,VWS V14.01,2013-01-22 22:02:00,
2013-01-22 16:08:00,65.3,41.0,29.62,North,0,0.0,0.0,41,0.00,,BKN,0.00,VWS V14.01,2013-01-22 22:08:00,
2013-01-22 16:13:00,65.3,41.0,29.62,North,0,0.0,0.0,41,0.00,,BKN,0.00,VWS V14.01,2013-01-22 22:13:00,
2013-01-22 16:18:00,65.3,41.0,29.62,North,0,0.0,0.0,41,0.00,,BKN,0.00,VWS V14.01,2013-01-22 22:18:00,
2013-01-22 16:23:00,65.1,40.9,29.62,North,0,0.0,0.0,41,0.00,,BKN,0.00,VWS V14.01,2013-01-22 22:23:00,
2013-01-22 16:28:00,65.1,41.5,29.62,North,0,0.0,0.0,42,0.00,,BKN,0.00,VWS V14.01,2013-01-22 22:28:00,
2013-01-22 16:33:00,65.1,40.9,29.62,North,0,0.0,0.0,41,0.00,,BKN,0.00,VWS V14.01,2013-01-22 22:33:00,
2013-01-22 16:38:00,65.1,40.9,29.62,North,0,0.0,0.0,41,0.00,,BKN,0.00,VWS V14.01,2013-01-22 22:38:00,
2013-01-22 16:43:00,64.9,41.3,29.62,North,0,0.0,0.0,42,0.00,,BKN,0.00,VWS V14.01,2013-01-22 22:43:00,
2013-01-22 16:48:00,64.9,41.3,29.62,North,0,0.0,0.0,42,0.00,,BKN,0.00,VWS V14.01,2013-01-22 22:48:00,
2013-01-22 16:53:00,64.8,41.2,29.62,North,0,0.0,0.0,42,0.00,,BKN,0.00,VWS V14.01,2013-01-22 22:53:00,
2013-01-22 16:59:00,64.8,41.2,29.62,North,0,0.0,0.0,42,0.00,,BKN,0.00,VWS V14.01,2013-01-22 22:59:00,
2013-01-22 17:04:00,64.6,41.0,29.62,North,0,0.0,0.0,42,0.00,,BKN,0.00,VWS V14.01,2013-01-22 23:04:00,
2013-01-22 17:09:00,64.4,41.4,29.62,North,0,0.0,0.0,43,0.00,,BKN,0.00,VWS V14.01,2013-01-22 23:09:00,
2013-01-22 17:14:00,64.4,41.4,29.62,North,0,0.0,0.0,43,0.00,,BKN,0.00,VWS V14.01,2013-01-22 23:14:00,
2013-01-22 17:19:00,64.2,41.3,29.62,North,0,0.0,0.0,43,0.00,,BKN,0.00,VWS V14.01,2013-01-22 23:19:00,
2013-01-22 17:24:00,64.0,41.1,29.62,North,0,0.0,0.0,43,0.00,,BKN,0.00,VWS V14.01,2013-01-22 23:24:00,
2013-01-22 17:29:00,63.9,41.0,29.62,North,0,0.0,0.0,43,0.00,,BKN,0.00,VWS V14.01,2013-01-22 23:29:00,
2013-01-22 17:34:00,63.5,41.2,29.62,North,0,0.0,0.0,44,0.00,,BKN,0.00,VWS V14.01,2013-01-22 23:34:00,
2013-01-22 17:40:00,63.1,40.9,29.62,North,0,0.0,0.0,44,0.00,,BKN,0.00,VWS V14.01,2013-01-22 23:40:00,
2013-01-22 17:45:00,63.0,40.7,29.62,North,0,0.0,0.0,44,0.00,,BKN,0.00,VWS V14.01,2013-01-22 23:45:00,
2013-01-22 17:50:00,62.6,41.0,29.62,North,0,0.0,0.0,45,0.00,,BKN,0.00,VWS V14.01,2013-01-22 23:50:00,
2013-01-22 17:55:00,62.4,40.8,29.62,North,0,0.0,0.0,45,0.00,,BKN,0.00,VWS V14.01,2013-01-22 23:55:00,
2013-01-22 18:00:00,62.1,40.5,29.62,North,0,0.0,0.0,45,0.00,,BKN,0.00,VWS V14.01,2013-01-23 00:00:00,
2013-01-22 18:05:00,61.9,40.9,29.62,North,0,0.0,0.0,46,0.00,,BKN,0.00,VWS V14.01,2013-01-23 00:05:00,
2013-01-22 18:10:00,61.7,40.7,29.62,North,0,0.0,0.0,46,0.00,,BKN,0.00,VWS V14.01,2013-01-23 00:10:00,
2013-01-22 18:15:00,61.5,40.6,29.62,North,0,0.0,0.0,46,0.00,,BKN,0.00,VWS V14.01,2013-01-23 00:15:00,
2013-01-22 18:20:00,61.2,40.2,29.62,North,0,0.0,0.0,46,0.00,,BKN,0.00,VWS V14.01,2013-01-23 00:20:00,
2013-01-22 18:26:00,61.0,40.1,29.62,North,0,0.0,0.0,46,0.00,,BKN,0.00,VWS V14.01,2013-01-23 00:26:00,
2013-01-22 18:31:00,60.6,40.3,29.62,North,0,0.0,0.0,47,0.00,,BKN,0.00,VWS V14.01,2013-01-23 00:31:00,
2013-01-22 18:36:00,60.4,40.1,29.62,North,0,0.0,0.0,47,0.00,,BKN,0.00,VWS V14.01,2013-01-23 00:36:00,
2013-01-22 18:41:00,60.1,39.8,29.62,North,0,0.0,0.0,47,0.00,,BKN,0.00,VWS V14.01,2013-01-23 00:41:00,
2013-01-22 18:47:00,59.7,39.5,29.62,North,0,0.0,0.0,47,0.00,,BKN,0.00,VWS V14.01,2013-01-23 00:47:00,
2013-01-22 18:52:00,59.5,39.8,29.62,North,0,0.0,0.0,48,0.00,,BKN,0.00,VWS V14.01,2013-01-23 00:52:00,
2013-01-22 18:57:00,59.2,39.5,29.62,North,0,0.0,0.0,48,0.00,,BKN,0.00,VWS V14.01,2013-01-23 00:57:00,
2013-01-22 19:02:00,58.8,39.7,29.62,North,0,0.0,0.0,49,0.00,,BKN,0.00,VWS V14.01,2013-01-23 01:02:00,
2013-01-22 19:07:00,58.6,39.5,29.62,North,0,0.0,0.0,49,0.00,,BKN,0.00,VWS V14.01,2013-01-23 01:07:00,
2013-01-22 19:12:00,58.3,39.7,29.62,North,0,0.0,0.0,50,0.00,,BKN,0.00,VWS V14.01,2013-01-23 01:12:00,
2013-01-22 19:17:00,58.1,39.6,29.62,North,0,0.0,0.0,50,0.00,,BKN,0.00,VWS V14.01,2013-01-23 01:17:00,
2013-01-22 19:22:00,57.7,39.2,29.62,North,0,0.0,0.0,50,0.00,,BKN,0.00,VWS V14.01,2013-01-23 01:22:00,
2013-01-22 19:27:00,57.6,39.6,29.62,North,0,0.0,0.0,51,0.00,,BKN,0.00,VWS V14.01,2013-01-23 01:27:00,
2013-01-22 19:33:00,57.4,39.4,29.65,North,0,0.0,0.0,51,0.00,,BKN,0.00,VWS V14.01,2013-01-23 01:33:00,
2013-01-22 19:38:00,57.2,39.8,29.65,North,0,0.0,0.0,52,0.00,,BKN,0.00,VWS V14.01,2013-01-23 01:38:00,
2013-01-22 19:43:00,56.8,39.9,29.65,North,0,0.0,0.0,53,0.00,,BKN,0.00,VWS V14.01,2013-01-23 01:43:00,
2013-01-22 19:48:00,56.8,39.9,29.65,North,0,0.0,0.0,53,0.00,,BKN,0.00,VWS V14.01,2013-01-23 01:48:00,
2013-01-22 19:53:00,56.8,40.4,29.65,North,0,0.0,0.0,54,0.00,,BKN,0.00,VWS V14.01,2013-01-23 01:53:00,
2013-01-22 19:58:00,56.7,40.2,29.65,North,0,0.0,0.0,54,0.00,,BKN,0.00,VWS V14.01,2013-01-23 01:58:00,
2013-01-22 20:03:00,56.7,40.2,29.65,North,0,0.0,0.0,54,0.00,,BKN,0.00,VWS V14.01,2013-01-23 02:03:00,
2013-01-22 20:08:00,56.3,40.4,29.65,North,0,0.0,0.0,55,0.00,,BKN,0.00,VWS V14.01,2013-01-23 02:08:00,
2013-01-22 20:13:00,56.1,40.2,29.65,North,0,0.0,0.0,55,0.00,,BKN,0.00,VWS V14.01,2013-01-23 02:13:00,
2013-01-22 20:18:00,55.9,40.0,29.65,North,0,0.0,0.0,55,0.00,,BKN,0.00,VWS V14.01,2013-01-23 02:18:00,
2013-01-22 20:23:00,55.8,40.3,29.65,North,0,0.0,0.0,56,0.00,,BKN,0.00,VWS V14.01,2013-01-23 02:23:00,
2013-01-22 20:28:00,55.4,40.0,29.65,North,0,0.0,0.0,56,0.00,,BKN,0.00,VWS V14.01,2013-01-23 02:28:00,
2013-01-22 20:34:00,55.4,40.4,29.65,North,0,0.0,0.0,57,0.00,,BKN,0.00,VWS V14.01,2013-01-23 02:34:00,
2013-01-22 20:39:00,55.0,40.1,29.65,North,0,0.0,0.0,57,0.00,,BKN,0.00,VWS V14.01,2013-01-23 02:39:00,
2013-01-22 20:44:00,54.9,40.4,29.65,North,0,0.0,0.0,58,0.00,,BKN,0.00,VWS V14.01,2013-01-23 02:44:00,
2013-01-22 20:49:00,54.7,40.2,29.65,North,0,0.0,0.0,58,0.00,,BKN,0.00,VWS V14.01,2013-01-23 02:49:00,
2013-01-22 20:54:00,54.5,40.5,29.65,North,0,0.0,0.0,59,0.00,,BKN,0.00,VWS V14.01,2013-01-23 02:54:00,
2013-01-22 20:59:00,54.5,40.5,29.65,North,0,0.0,0.0,59,0.00,,BKN,0.00,VWS V14.01,2013-01-23 02:59:00,
2013-01-22 21:04:00,54.1,40.1,29.65,North,0,0.0,0.0,59,0.00,,BKN,0.00,VWS V14.01,2013-01-23 03:04:00,
2013-01-22 21:09:00,54.1,40.6,29.65,North,0,0.0,0.0,60,0.00,,BKN,0.00,VWS V14.01,2013-01-23 03:09:00,
2013-01-22 21:14:00,54.0,40.4,29.65,North,0,0.0,0.0,60,0.00,,BKN,0.00,VWS V14.01,2013-01-23 03:14:00,
2013-01-22 21:19:00,53.8,40.2,29.65,North,0,0.0,0.0,60,0.00,,BKN,0.00,VWS V14.01,2013-01-23 03:19:00,
2013-01-22 21:24:00,53.6,40.5,29.65,North,0,0.0,0.0,61,0.00,,BKN,0.00,VWS V14.01,2013-01-23 03:24:00,
2013-01-22 21:29:00,53.6,40.5,29.65,North,0,0.0,0.0,61,0.00,,BKN,0.00,VWS V14.01,2013-01-23 03:29:00,
2013-01-22 21:35:00,53.4,40.7,29.65,North,0,0.0,0.0,62,0.00,,BKN,0.00,VWS V14.01,2013-01-23 03:35:00,
2013-01-22 21:40:00,53.2,40.6,29.65,North,0,0.0,0.0,62,0.00,,BKN,0.00,VWS V14.01,2013-01-23 03:40:00,
2013-01-22 21:45:00,53.2,41.0,29.65,North,0,0.0,0.0,63,0.00,,BKN,0.00,VWS V14.01,2013-01-23 03:45:00,
2013-01-22 21:50:00,53.1,40.8,29.65,North,0,0.0,0.0,63,0.00,,BKN,0.00,VWS V14.01,2013-01-23 03:50:00,
2013-01-22 21:55:00,53.1,40.8,29.65,North,0,0.0,0.0,63,0.00,,BKN,0.00,VWS V14.01,2013-01-23 03:55:00,
2013-01-22 22:00:00,53.1,41.2,29.65,North,0,0.0,0.0,64,0.00,,BKN,0.00,VWS V14.01,2013-01-23 04:00:00,
2013-01-22 22:05:00,53.1,41.2,29.65,North,0,0.0,0.0,64,0.00,,BKN,0.00,VWS V14.01,2013-01-23 04:05:00,
2013-01-22 22:10:00,53.1,41.2,29.65,North,0,0.0,0.0,64,0.00,,BKN,0.00,VWS V14.01,2013-01-23 04:10:00,
2013-01-22 22:15:00,53.1,41.2,29.65,North,0,0.0,0.0,64,0.00,,BKN,0.00,VWS V14.01,2013-01-23 04:15:00,
2013-01-22 22:20:00,52.9,41.5,29.65,North,0,0.0,0.0,65,0.00,,BKN,0.00,VWS V14.01,2013-01-23 04:20:00,
2013-01-22 22:25:00,52.9,41.5,29.65,North,0,0.0,0.0,65,0.00,,BKN,0.00,VWS V14.01,2013-01-23 04:25:00,
2013-01-22 22:30:00,52.9,41.5,29.65,North,0,0.0,0.0,65,0.00,,BKN,0.00,VWS V14.01,2013-01-23 04:30:00,
2013-01-22 22:35:00,52.9,41.8,29.65,North,0,0.0,0.0,66,0.00,,BKN,0.00,VWS V14.01,2013-01-23 04:35:00,
2013-01-22 22:41:00,52.7,41.7,29.65,North,0,0.0,0.0,66,0.00,,BKN,0.00,VWS V14.01,2013-01-23 04:41:00,
2013-01-22 22:46:00,52.5,41.5,29.65,North,0,0.0,0.0,66,0.00,,BKN,0.00,VWS V14.01,2013-01-23 04:46:00,
2013-01-22 22:51:00,52.5,41.5,29.65,North,0,0.0,0.0,66,0.00,,BKN,0.00,VWS V14.01,2013-01-23 04:51:00,
2013-01-22 22:56:00,52.3,41.7,29.65,North,0,0.0,0.0,67,0.00,,BKN,0.00,VWS V14.01,2013-01-23 04:56:00,
2013-01-22 23:00:00,52.2,41.5,29.65,North,0,0.0,0.0,67,0.00,,BKN,0.00,VWS V14.01,2013-01-23 05:00:00,
2013-01-22 23:02:00,52.2,41.5,29.65,North,0,0.0,0.0,67,0.00,,BKN,0.00,VWS V14.01,2013-01-23 05:02:00,
2013-01-22 23:03:00,52.2,41.5,29.65,North,0,0.0,0.0,67,0.00,,BKN,0.00,VWS V14.01,2013-01-23 05:03:00,
2013-01-22 23:09:00,51.8,41.2,29.65,North,0,0.0,0.0,67,0.00,,BKN,0.00,VWS V14.01,2013-01-23 05:09:00,
2013-01-22 23:14:00,51.6,41.4,29.65,North,0,0.0,0.0,68,0.00,,BKN,0.00,VWS V14.01,2013-01-23 05:14:00,
2013-01-22 23:19:00,51.6,41.4,29.65,North,0,0.0,0.0,68,0.00,,BKN,0.00,VWS V14.01,2013-01-23 05:19:00,
2013-01-22 23:24:00,51.4,41.2,29.65,North,0,0.0,0.0,68,0.00,,BKN,0.00,VWS V14.01,2013-01-23 05:24:00,
2013-01-22 23:29:00,51.3,41.1,29.65,North,0,0.0,0.0,68,0.00,,BKN,0.00,VWS V14.01,2013-01-23 05:29:00,
2013-01-22 23:34:00,51.1,41.3,29.65,North,0,0.0,0.0,69,0.00,,BKN,0.00,VWS V14.01,2013-01-23 05:34:00,
2013-01-22 23:39:00,50.9,41.1,29.65,North,0,0.0,0.0,69,0.00,,BKN,0.00,VWS V14.01,2013-01-23 05:39:00,
2013-01-22 23:44:00,50.9,41.1,29.65,North,0,0.0,0.0,69,0.00,,BKN,0.00,VWS V14.01,2013-01-23 05:44:00,
2013-01-22 23:49:00,50.9,41.1,29.65,North,0,0.0,0.0,69,0.00,,BKN,0.00,VWS V14.01,2013-01-23 05:49:00,
2013-01-22 23:54:00,50.9,41.1,29.65,North,0,0.0,0.0,69,0.00,,BKN,0.00,VWS V14.01,2013-01-23 05:54:00,